Weather in Kalynivka

Ukraine / Vinnytsia Region     49°26′49″N   28°31′23″E
В апреле 2022 года жителям России запретили посещать сайт meteo.paraplan.net по решению Генеральной прокуратуры. Аудитория сайта уменьшилась в 10 раз. Владельцы сайта не видят смысла в поддержке погодного сервера в таких условиях. Сайт будет закрыт в октябре.
temp.,
°C
wind,
m/s
gust,
m/s
humid.,
%
clouds,
%
prec.,
mm/h
press.,
hPa
HPBL,
m
25 september, sun
sun2500:00+9w3768100 0.0 1017199
03:00+6w378861 0.0 1018121
06:00+8wsw3677100 0.0 1018199
09:00+9wsw36745 0.0 1018226
12:00+14wsw5657100 0.0 10171176
15:00+15wsw4554100 0.0 10161022
18:00+14sw3562100 0.0 1015111
21:00+10ssw3467100 0.0 101559
26 september, mon
mon2600:00+11ssw3463100 0.0 101494
03:00+11ssw3770100 0.0 1013165
06:00+11s2267100 0.0 101246
09:00+13sse236495 0.0 1012151
12:00+17sse3451100 0.0 1011754
15:00+16nw3361100 0.1 1010321
18:00+13nw1180100 0.1 101050
21:00+12nne1283100 0.1 100929
27 september, tue
tue2700:00+12e2281100 0.0 100851
03:00+11ene3484100 0.0 100794
06:00+12ene3881100 0.0 1005211
09:00+11e4795100 1.3 1003278
12:00+12ese2898100 0.8 1002578
15:00+14sse3694100 0.9 1000443
18:00+14w129599 0.4 999116
21:00+11wnw369863 0.4 1000225
28 september, wed
wed2800:00+11wnw4796100 0.0 1000372
03:00+11wnw6885100 0.0 1001589
06:00+11wnw468499 0.0 1001409
09:00+11wsw358678 0.0 1002245
12:00+16w576477 0.1 1003976
15:00+15w576842 0.1 1004798
18:00+15wnw34719 0.0 1005109
21:00+11e11845 0.0 100710
29 september, thu
thu2900:00+10ese228813 0.0 100810
03:00+10se349195 0.0 100849
06:00+9se3793100 0.0 1008130
09:00+13se41082100 0.0 1008306
12:00+16sse4973100 0.0 1008465
15:00+20sse685885 0.0 10071211
18:00+18s3566100 0.0 100775
21:00+17se4666100 0.1 100898